FENGYUN 1C DEB

Satellite information

Favourite Embed

Satellite Type and Status

DEBRISIN ORBIT

Key statistics

Satellite FENGYUN 1C DEB at a glance.

Uptime

9669

Days in orbit

Revolutions

≈ 13.8

Per day

Orbit

SSO

Sun Synchronous Orbit

Inclination

98.7

Latest

Satellite identification and parameters

Extended collection of information and parameters for FENGYUN 1C DEB.

Object identification

Identified? True

Debris? True

Object name: FENGYUN 1C DEB

International designator: 1999-025CUN

Object number (NORAD): 32192

Object ID (CCSDS): 32192

Country: PEOPLES REPUBLIC OF CHINA (PRC)

Current information (Y/N): Y

RCS size: SMALL

Orbital parameters

Period: 104.162 minutes

Inclination: 98.6557 deg

SMA: 7333.305 km

Apoapsis: 1088.118 km

Periapsis: 822.222 km

RAAN: 174.0661 deg

Eccentricy: 0.01812936

Argument of periapsis: 291.4156 deg

Mean anomaly: 66.7745 deg

Mean motion: 13.82461771 rev/day

Mean motion (dot): 0.00000477 rev/day2

B* drag term: 0.00042162465 1/REarth

Two-line elements (TLE)

Creation date: Oct. 27, 2025, 2:46 a.m.

Reference frame: TEME

Reference center: EARTH

Epoch: Oct. 26, 2025, 9:18 a.m. UTC

TLE line 0: 0 FENGYUN 1C DEB

TLE line 1: 1 32192U 99025CUN 25299.38793296 .00000477 00000-0 42162-3 0 9992

TLE line 2: 2 32192 98.6557 174.0661 0181294 291.4156 66.7745 13.82461771920586

Live tracking on map

Real-time ground track for satellite FENGYUN 1C DEB.

In-orbit conjunctions

A list of the most updated potential collisions computed for object FENGYUN 1C DEB.

Target Orbit TCA Probability of collision Miss distance Type
COSMOS 1656 LEO 2025-02-09 02:22:18 0.000201969 553.0 (m) PAYLOAD
COSMOS 962 LEO 2025-01-04 18:38:40 0.0006992748 402.0 (m) PAYLOAD
COSMOS 860 LEO 2024-10-22 03:29:11 0.0005929499 342.0 (m) PAYLOAD

Associated space launch

Chinese polar orbiting meteorological satellite

FENGYUN 1C DEB was lifted into orbit during the mission ‘Long March 4B | Feng Yun 1C’, on board a Long March 4B space rocket.

The launch took place on May 10, 1999, 1:33 a.m. from Launch Complex 7.

For more information about the launch, click the button.

Launch to space Long March 4B | Feng Yun 1C
Long March 4B | Feng Yun 1C

Agency: N/A

Status: Launch Successful

Launch date: May 10, 1999, 1:33 a.m. UTC

Rocket: Long March 4B

Launch pad: Launch Complex 7

Location: Taiyuan Satellite Launch Center, People's Republic of China

...

Latest news about this satellite

There are no fresh news available about this satellite. Check back as we update our databases every day.


Newsletter sign-up

Weekly statistics, charts and insights to help you stay on top of the space industry.